W2EH Weather Reports


time (UTC)temp
C
wind
direction
speed
KPH
gust
KPH
rain 1hr
cm
rain 24hr
cm
rain mn
cm
humidity
%
barometer
mb
20260506015437 25 121 1.6 3.2 0.00 0.00 0.00 80 1005.3
20260506014934 25 136 3.2 3.2 0.00 0.00 0.00 80 1004.9
20260506014431 25 116 1.6 3.2 0.00 0.00 0.00 79 1004.9
20260506013927 25 142 1.6 4.8 0.00 0.00 0.00 79 1004.9
20260506013426 26 141 0.0 3.2 0.00 0.00 0.00 78 1004.9
20260506012921 26 108 1.6 3.2 0.00 0.00 0.00 78 1004.9
20260506012418 26 114 1.6 4.8 0.00 0.00 0.00 77 1004.8
20260506011915 26 124 1.6 3.2 0.00 0.00 0.00 76 1004.8
20260506011412 26 116 3.2 4.8 0.00 0.00 0.00 76 1004.5
20260506010909 26 131 0.0 6.4 0.00 0.00 0.00 75 1004.7
20260506010408 26 114 3.2 3.2 0.00 0.00 0.00 75 1004.8
20260506005904 27 126 3.2 3.2 0.00 0.00 0.00 74 1004.7
20260506005402 27 157 3.2 4.8 0.00 0.00 0.00 73 1004.7
20260506004856 27 130 0.0 4.8 0.00 0.00 0.00 73 1004.7
20260506004355 27 182 0.0 6.4 0.00 0.00 0.00 72 1004.6
20260506003851 27 146 3.2 4.8 0.00 0.00 0.00 73 1004.7
20260506003347 27 130 3.2 4.8 0.00 0.00 0.00 72 1004.5
20260506002843 27 145 3.2 3.2 0.00 0.00 0.00 72 1004.7
20260506002340 27 160 3.2 6.4 0.00 0.00 0.00 71 1004.7
20260506001835 27 144 1.6 4.8 0.00 0.00 0.00 71 1004.6
20260506001333 27 134 3.2 4.8 0.00 0.00 0.00 72 1004.6
20260506000830 27 142 3.2 4.8 0.00 0.00 0.00 71 1004.8
20260506000329 27 109 0.0 4.8 0.00 0.00 0.00 71 1004.8
20260505235824 27 139 3.2 4.8 0.00 0.00 0.00 71 1004.6
20260505235322 27 134 4.8 4.8 0.00 0.00 0.00 70 1004.8
20260505234818 27 146 6.4 6.4 0.00 0.00 0.00 70 1005.0
20260505234316 27 107 1.6 6.4 0.00 0.00 0.00 71 1004.8
20260505233813 27 188 1.6 6.4 0.00 0.00 0.00 70 1004.6
20260505233311 27 187 3.2 4.8 0.00 0.00 0.00 70 1004.6
20260505232808 27 165 4.8 4.8 0.00 0.00 0.00 69 1004.5
20260505232306 28 174 3.2 4.8 0.00 0.00 0.00 69 1004.6
20260505231802 28 148 4.8 6.4 0.00 0.00 0.00 69 1004.6
20260505231300 28 112 1.6 6.4 0.00 0.00 0.00 68 1004.4
20260505230758 28 132 3.2 6.4 0.00 0.00 0.00 68 1004.2
20260505230255 28 143 1.6 6.4 0.00 0.00 0.00 69 1004.2
20260505225751 28 142 3.2 6.4 0.00 0.00 0.00 68 1004.1
20260505225249 28 134 6.4 6.4 0.00 0.00 0.00 68 1004.2
20260505224743 28 160 1.6 4.8 0.00 0.00 0.00 68 1004.0
20260505224241 28 213 3.2 6.4 0.00 0.00 0.00 68 1004.1
20260505223739 28 149 3.2 4.8 0.00 0.00 0.00 68 1004.1
20260505223235 28 141 4.8 11.3 0.00 0.00 0.00 68 1004.3
20260505222731 28 134 0.0 9.7 0.00 0.00 0.00 66 1004.2
20260505222227 28 199 3.2 9.7 0.00 0.00 0.00 67 1004.2
20260505221725 28 151 3.2 9.7 0.00 0.00 0.00 68 1004.1
20260505221221 28 185 4.8 4.8 0.00 0.00 0.00 67 1004.0
20260505220718 28 180 1.6 9.7 0.00 0.00 0.00 67 1004.0
20260505220216 28 172 1.6 11.3 0.00 0.00 0.00 67 1004.0
20260505215714 28 149 4.8 8.0 0.00 0.00 0.00 66 1004.3
20260505215211 29 151 6.4 9.7 0.00 0.00 0.00 66 1004.4
20260505214709 29 140 3.2 11.3 0.00 0.00 0.00 66 1004.4
20260505214206 29 164 3.2 8.0 0.00 0.00 0.00 67 1004.5
20260505213703 29 140 4.8 8.0 0.00 0.00 0.00 66 1004.7
20260505213201 29 126 3.2 6.4 0.00 0.00 0.00 67 1004.3
20260505212656 29 125 4.8 8.0 0.00 0.00 0.00 65 1004.6
20260505212154 30 145 9.7 9.7 0.00 0.00 0.00 66 1004.8
20260505211650 29 170 3.2 6.4 0.00 0.00 0.00 65 1004.7
20260505211148 29 141 4.8 8.0 0.00 0.00 0.00 66 1004.8
20260505210644 29 208 3.2 17.7 0.00 0.00 0.00 68 1005.0
20260505210141 29 152 3.2 14.5 0.00 0.00 0.00 66 1005.1
20260505205638 28 139 4.8 9.7 0.00 0.00 0.00 68 1005.0
20260505205137 28 151 3.2 11.3 0.00 0.00 0.00 68 1005.1
20260505204633 28 150 3.2 8.0 0.00 0.00 0.00 68 1005.1
20260505204131 28 130 0.0 6.4 0.00 0.00 0.00 68 1004.8
20260505203627 28 141 6.4 8.0 0.00 0.00 0.00 67 1005.1
20260505203125 28 172 4.8 8.0 0.00 0.00 0.00 68 1005.1
20260505202620 28 162 6.4 9.7 0.00 0.00 0.00 67 1005.2
20260505202116 28 97 3.2 6.4 0.00 0.00 0.00 67 1005.4
20260505201613 28 167 4.8 11.3 0.00 0.00 0.00 67 1005.6
20260505201111 28 187 3.2 8.0 0.00 0.00 0.00 68 1005.5
20260505200609 28 169 4.8 8.0 0.00 0.00 0.00 70 1005.6
20260505200106 28 175 6.4 8.0 0.00 0.00 0.00 67 1005.5
20260505195601 28 205 8.0 14.5 0.00 0.00 0.00 67 1005.4
20260505195059 28 185 3.2 8.0 0.00 0.00 0.00 67 1005.4
20260505194556 28 145 9.7 11.3 0.00 0.00 0.00 67 1005.5
20260505194052 28 197 6.4 8.0 0.00 0.00 0.00 68 1005.7
20260505193549 28 172 3.2 9.7 0.00 0.00 0.00 67 1005.8
20260505193046 28 139 6.4 9.7 0.00 0.00 0.00 68 1006.0
20260505192545 28 150 8.0 8.0 0.00 0.00 0.00 69 1005.9
20260505192042 28 208 3.2 9.7 0.00 0.00 0.00 69 1005.8
20260505191540 28 176 3.2 6.4 0.00 0.00 0.00 69 1005.8
20260505191038 27 211 6.4 8.0 0.00 0.00 0.00 69 1005.9
20260505190532 27 205 3.2 12.9 0.00 0.00 0.00 70 1006.2
20260505190029 27 140 6.4 11.3 0.00 0.00 0.00 68 1006.2
20260505185525 27 136 3.2 8.0 0.00 0.00 0.00 71 1006.0
20260505185022 27 148 8.0 11.3 0.00 0.00 0.00 68 1006.2
20260505184519 27 125 3.2 11.3 0.00 0.00 0.00 72 1006.4
20260505184015 27 134 3.2 9.7 0.00 0.00 0.00 71 1006.5
20260505183512 27 157 6.4 12.9 0.00 0.00 0.00 70 1006.8
20260505183009 26 197 1.6 6.4 0.00 0.00 0.00 72 1006.9
20260505182506 26 204 6.4 12.9 0.00 0.00 0.00 70 1007.2
20260505182002 26 164 4.8 17.7 0.00 0.00 0.00 71 1006.9
20260505181459 26 136 6.4 8.0 0.00 0.00 0.00 75 1006.9
20260505180956 26 140 4.8 8.0 0.00 0.00 0.00 74 1007.1
20260505180452 25 136 6.4 8.0 0.00 0.00 0.00 75 1007.0
20260505175949 25 137 6.4 11.3 0.00 0.00 0.00 76 1007.0
20260505175445 25 149 8.0 16.1 0.00 0.00 0.00 77 1007.3
20260505174942 25 219 3.2 4.8 0.00 0.00 0.00 78 1007.4
20260505174439 25 196 0.0 6.4 0.00 0.00 0.00 77 1007.5
20260505173935 25 188 1.6 8.0 0.00 0.00 0.00 77 1007.3
20260505173432 25 213 4.8 11.3 0.00 0.00 0.00 77 1007.4
20260505172929 25 208 3.2 11.3 0.00 0.00 0.00 78 1007.4
20260505172428 25 127 4.8 8.0 0.00 0.00 0.00 79 1007.3
20260505171926 24 216 8.0 11.3 0.00 0.00 0.00 80 1007.4
20260505171424 24 141 4.8 6.4 0.00 0.00 0.00 80 1007.3
20260505170920 23 227 3.2 6.4 0.00 0.00 0.00 81 1007.2
20260505170417 23 163 4.8 9.7 0.00 0.00 0.00 80 1007.6
20260505165912 23 162 4.8 8.0 0.00 0.00 0.00 81 1007.5
20260505165409 23 171 3.2 6.4 0.00 0.00 0.00 82 1007.4
20260505164904 23 190 4.8 8.0 0.00 0.00 0.00 82 1007.4
20260505164401 23 155 4.8 14.5 0.00 0.00 0.00 82 1007.6
20260505163859 23 199 6.4 9.7 0.00 0.00 0.00 82 1007.5
20260505163358 23 152 3.2 8.0 0.00 0.00 0.00 83 1007.5
20260505162856 23 189 6.4 12.9 0.00 0.00 0.00 83 1007.5
20260505162351 23 180 4.8 6.4 0.00 0.00 0.00 83 1007.7
20260505161849 23 174 4.8 8.0 0.00 0.00 0.00 84 1007.5
20260505161346 23 146 4.8 6.4 0.00 0.00 0.00 84 1007.6
20260505160843 22 153 4.8 9.7 0.00 0.00 0.00 84 1007.6
20260505160341 22 187 4.8 9.7 0.00 0.00 0.00 85 1007.3
20260505153319 22 135 8.0 11.3 0.00 0.00 0.00 85 1007.5
20260505152816 22 181 4.8 8.0 0.00 0.00 0.00 86 1007.4
20260505152314 22 168 3.2 8.0 0.00 0.00 0.00 85 1007.4
20260505151814 22 157 6.4 11.3 0.00 0.00 0.00 86 1007.6
20260505151311 22 189 4.8 9.7 0.00 0.00 0.00 86 1007.7
20260505150808 22 187 1.6 8.0 0.00 0.00 0.00 86 1007.5
20260505150305 22 155 3.2 4.8 0.00 0.00 0.00 87 1007.2
20260505140235 21 142 8.0 8.0 0.00 0.00 0.00 87 1007.1
20260505130159 21 121 4.8 14.5 0.00 0.00 0.00 87 1006.5
20260505124649 21 209 6.4 9.7 0.00 0.00 0.00 87 1006.3
20260505124145 21 154 4.8 9.7 0.00 0.00 0.00 87 1006.1
20260505123641 21 139 6.4 9.7 0.00 0.00 0.00 87 1006.0
20260505123138 21 142 3.2 9.7 0.00 0.00 0.00 87 1006.2
20260505122634 21 161 6.4 9.7 0.00 0.00 0.00 87 1006.0
20260505122132 21 130 3.2 8.0 0.00 0.00 0.00 87 1006.1
20260505121628 21 173 3.2 9.7 0.00 0.00 0.00 88 1005.6
20260505121125 21 132 6.4 9.7 0.00 0.00 0.00 88 1005.8
20260505120622 21 161 4.8 8.0 0.00 0.00 0.00 88 1005.7
20260505120118 21 144 8.0 9.7 0.00 0.00 0.00 88 1005.8
20260505115618 21 198 3.2 6.4 0.00 0.00 0.00 88 1005.3
20260505115115 21 187 3.2 6.4 0.00 0.00 0.00 88 1005.2
20260505114612 21 178 3.2 11.3 0.00 0.00 0.00 88 1005.4
20260505114109 21 152 3.2 16.1 0.00 0.00 0.00 87 1005.6
20260505113605 21 148 3.2 9.7 0.00 0.00 0.00 87 1005.4
20260505113102 21 143 3.2 14.5 0.00 0.00 0.00 87 1005.6
20260505112558 21 130 6.4 8.0 0.00 0.00 0.00 87 1005.7
20260505112056 21 158 8.0 12.9 0.00 0.00 0.00 87 1005.6
20260505111550 21 150 6.4 9.7 0.00 0.00 0.00 87 1005.4
20260505111046 21 141 9.7 12.9 0.00 0.00 0.00 87 1005.6
20260505110543 21 147 3.2 9.7 0.00 0.00 0.00 86 1005.5
20260505102015 21 151 3.2 8.0 0.00 0.00 0.00 85 1005.8
20260505101514 21 155 3.2 8.0 0.00 0.00 0.00 85 1005.9
20260505101010 21 149 8.0 12.9 0.00 0.00 0.00 85 1005.7
20260505100507 21 182 3.2 8.0 0.00 0.00 0.00 85 1005.9
20260505100003 21 161 6.4 8.0 0.00 0.00 0.00 85 1006.2
20260505095459 21 185 4.8 6.4 0.00 0.00 0.00 85 1006.2
20260505094956 21 103 4.8 8.0 0.00 0.00 0.00 85 1006.0
20260505094453 21 130 6.4 9.7 0.00 0.00 0.00 85 1005.9
20260505093949 21 165 6.4 9.7 0.00 0.00 0.00 85 1005.9
20260505093446 21 160 4.8 16.1 0.00 0.00 0.00 86 1006.2
20260505092943 21 159 6.4 9.7 0.00 0.00 0.00 86 1005.9
20260505092441 21 195 6.4 9.7 0.00 0.00 0.00 86 1005.8
20260505091938 21 164 6.4 8.0 0.00 0.00 0.00 86 1006.0
20260505091435 21 134 4.8 9.7 0.00 0.00 0.00 86 1006.3
20260505090933 21 123 6.4 8.0 0.00 0.00 0.00 86 1006.4
20260505090431 21 160 6.4 12.9 0.00 0.00 0.00 86 1006.3
20260505085928 21 143 8.0 11.3 0.00 0.00 0.00 85 1006.4
20260505085426 21 121 6.4 8.0 0.00 0.00 0.00 85 1006.2
20260505084924 21 137 8.0 9.7 0.00 0.00 0.00 85 1006.2
20260505084422 21 147 6.4 11.3 0.00 0.00 0.00 85 1006.2
20260505083920 21 144 6.4 8.0 0.00 0.00 0.00 85 1006.2
20260505083417 21 145 6.4 14.5 0.00 0.00 0.00 85 1006.3
20260505082913 21 184 4.8 8.0 0.00 0.00 0.00 85 1006.4
20260505082409 21 140 8.0 9.7 0.00 0.00 0.00 85 1006.5
20260505081906 21 175 6.4 11.3 0.00 0.00 0.00 85 1006.4
20260505081403 21 136 4.8 8.0 0.00 0.00 0.00 84 1006.9
20260505080859 21 162 4.8 9.7 0.00 0.00 0.00 84 1006.6
20260505080355 21 158 4.8 19.3 0.00 0.00 0.00 84 1006.9
20260505075851 21 131 3.2 12.9 0.00 0.00 0.00 85 1006.9
20260505075348 21 159 6.4 12.9 0.00 0.00 0.00 84 1006.6
20260505074845 21 158 3.2 9.7 0.00 0.00 0.00 84 1006.5
20260505074342 21 145 11.3 12.9 0.00 0.00 0.00 84 1006.9
20260505073840 21 194 4.8 16.1 0.00 0.00 0.00 84 1006.9
20260505073338 21 147 6.4 8.0 0.00 0.00 0.00 84 1007.0
20260505072834 21 148 6.4 9.7 0.00 0.00 0.00 84 1006.9
20260505072330 21 139 4.8 9.7 0.00 0.00 0.00 84 1007.2
20260505071826 21 135 6.4 9.7 0.00 0.00 0.00 84 1007.0
20260505071323 21 183 6.4 11.3 0.00 0.00 0.00 84 1007.2
20260505070821 21 153 4.8 9.7 0.00 0.00 0.00 84 1007.3
20260505070318 21 177 1.6 4.8 0.00 0.00 0.00 84 1007.5
20260505065813 21 134 3.2 16.1 0.00 0.00 0.00 84 1007.4
20260505065310 21 185 4.8 9.7 0.00 0.00 0.00 83 1007.5
20260505064807 21 170 4.8 9.7 0.00 0.00 0.00 83 1007.7
20260505064304 21 121 6.4 14.5 0.00 0.00 0.00 83 1007.6
20260505063802 21 141 6.4 16.1 0.00 0.00 0.00 83 1007.4
20260505063258 21 143 4.8 8.0 0.00 0.00 0.00 83 1007.6
20260505062754 21 148 4.8 11.3 0.00 0.00 0.00 83 1007.6
20260505062252 21 162 3.2 6.4 0.00 0.00 0.00 83 1007.5
20260505061749 21 160 4.8 12.9 0.00 0.00 0.00 82 1007.6
20260505061247 22 156 3.2 6.4 0.00 0.00 0.00 82 1007.8
20260505060744 22 144 6.4 8.0 0.00 0.00 0.00 82 1007.8
20260505060241 22 143 3.2 9.7 0.00 0.00 0.00 82 1007.8
20260505055736 22 108 6.4 8.0 0.00 0.00 0.00 82 1007.7
20260505055232 22 126 0.0 6.4 0.00 0.00 0.00 82 1007.8
20260505054730 22 169 4.8 6.4 0.00 0.00 0.00 82 1008.0
20260505054228 22 140 3.2 6.4 0.00 0.00 0.00 82 1007.8
20260505053726 22 139 6.4 8.0 0.00 0.00 0.00 82 1007.7
20260505053222 22 130 3.2 9.7 0.00 0.00 0.00 82 1007.5
20260505052719 22 164 3.2 12.9 0.00 0.00 0.00 82 1007.7
20260505052216 22 151 3.2 6.4 0.00 0.00 0.00 82 1007.7
20260505051713 22 130 4.8 8.0 0.00 0.00 0.00 82 1007.9
20260505051211 22 158 3.2 4.8 0.00 0.00 0.00 82 1007.6
20260505050709 22 155 3.2 8.0 0.00 0.00 0.00 81 1007.6
20260505050208 22 161 6.4 11.3 0.00 0.00 0.00 81 1007.7
20260505041642 22 140 4.8 8.0 0.00 0.00 0.00 79 1007.7
20260505041140 22 109 0.0 8.0 0.00 0.00 0.00 79 1007.7
20260505040636 22 180 8.0 8.0 0.00 0.00 0.00 78 1007.8
20260505040134 22 146 4.8 14.5 0.00 0.00 0.00 78 1007.9
20260505035630 22 154 1.6 6.4 0.00 0.00 0.00 78 1007.6
20260505035126 23 144 8.0 8.0 0.00 0.00 0.00 78 1007.7
20260505034623 23 164 3.2 11.3 0.00 0.00 0.00 77 1007.6
20260505034120 23 143 6.4 8.0 0.00 0.00 0.00 77 1007.7
20260505033617 23 149 14.5 16.1 0.00 0.00 0.00 77 1007.9
20260505033115 23 167 6.4 8.0 0.00 0.00 0.00 76 1007.7
20260505032613 23 149 3.2 6.4 0.00 0.00 0.00 76 1007.4
20260505032109 23 144 8.0 9.7 0.00 0.00 0.00 76 1007.5
20260505031606 23 140 4.8 8.0 0.00 0.00 0.00 75 1007.4
20260505031102 23 134 3.2 6.4 0.00 0.00 0.00 75 1007.5
20260505030600 23 141 6.4 8.0 0.00 0.00 0.00 75 1007.4
20260505030055 23 174 4.8 6.4 0.00 0.00 0.00 74 1007.4
20260505025551 23 190 1.6 9.7 0.00 0.00 0.00 74 1007.7
20260505025051 23 122 3.2 8.0 0.00 0.00 0.00 73 1007.6
20260505024547 23 136 4.8 6.4 0.00 0.00 0.00 73 1007.6
20260505024044 24 150 8.0 8.0 0.00 0.00 0.00 72 1007.5
20260505023541 24 146 6.4 9.7 0.00 0.00 0.00 71 1007.6
20260505023039 24 156 4.8 9.7 0.00 0.00 0.00 71 1007.6
20260505022536 24 137 6.4 8.0 0.00 0.00 0.00 70 1007.4
20260505022033 24 137 6.4 9.7 0.00 0.00 0.00 69 1007.6
20260505021530 24 188 6.4 9.7 0.00 0.00 0.00 69 1007.5
20260505021027 24 145 8.0 11.3 0.00 0.00 0.00 68 1007.3
20260505020526 24 133 4.8 8.0 0.00 0.00 0.00 67 1007.1
20260505020024 24 131 3.2 6.4 0.00 0.00 0.00 67 1007.2
20260505015521 24 176 3.2 4.8 0.00 0.00 0.00 67 1007.2